Regional Weather Roundup
Issued by NWS Albany, NY

Home | Current Version | Previous Version | Text Only | Print | Product List | Glossary On
Versions: 1 2 3 4 5 6 7 8 9 10 11 12 13 14 15 16 17 18 19 20 21 22 23 24 25 26 27 28 29 30 31 32 33 34 35 36 37 38 39 40 41 42 43 44 45 46 47 48 49 50
000
ASUS41 KALY 260710
RWRALY

NEW YORK STATE HOURLY WEATHER ROUNDUP
NATIONAL WEATHER SERVICE ALBANY NY
300 AM EDT THU APR 26 2018

NOTE: "FAIR" INDICATES FEW OR NO CLOUDS BELOW 12,000 FEET WITH NO
SIGNIFICANT WEATHER AND/OR NO OBSTRUCTIONS TO VISIBILITY.

NYZ032-033-038>043-046>054-057>066-NYZ062>081-082-084-260800-
EAST


CITY           SKY/WX    TMP DP  RH WIND       PRES   REMARKS
ALBANY         CLOUDY    54  52  93 N3        29.60F
GLENS FALLS    CLOUDY    51  51 100 CALM      29.58F
POUGHKEEPSIE   FOG       56  55  97 SW3       29.58F VSB 1/4
NEWBURGH       CLOUDY    55  55 100 CALM      29.61F FOG
MONTGOMERY     CLOUDY    54  53  97 SW7       29.59S
WHITE PLAINS   FOG       54  53  97 NW5       29.58F VSB 1/4
ISLIP          FOG       52  52 100 CALM      29.58F VSB 1/4
NEW YORK CITY  CLOUDY    55  53  93 CALM      29.59S FOG
CENTRAL PARK   CLOUDY    56  55  97 W3        29.62S FOG
$$

NYZ005>009-017-018-044>046-055-056-260800-
CENTRAL


CITY           SKY/WX    TMP DP  RH WIND       PRES   REMARKS
FULTON         CLOUDY    44  42  93 W15       29.68F
SYRACUSE       DRIZZLE   46  46 100 W17       29.68S
ROME           LGT RAIN  48  47  96 NW10      29.66F FOG
ELMIRA         CLOUDY    48  40  73 W14G22    29.71S
BINGHAMTON     CLOUDY    45  43  93 W10       29.66F
MONTICELLO     CLOUDY    50  49  96 W10       29.64S
$$

NYZ026>034-041>043-087-260800-
NORTH


CITY           SKY/WX    TMP DP  RH WIND       PRES   REMARKS
WATERTOWN      LGT RAIN  40  40 100 SW12G21   29.64F VSB 3/4 WCI  33
FORT DRUM      NOT AVBL
OGDENSBURG     CLOUDY    51  50  97 SW5       29.59F
MASSENA        CLOUDY    53  53 100 SW5       29.60S
SARANAC LAKE   CLOUDY    43  43 100 CALM      29.58F FOG
PLATTSBURGH    FOG       50  50 100 CALM      29.58S VSB 3/4
$$

NYZ001>004-010>016-019>021-085-260800-
WEST


CITY           SKY/WX    TMP DP  RH WIND       PRES   REMARKS
NIAGARA FALLS  CLOUDY    41  35  79 W12       29.78S
BUFFALO        CLOUDY    38  36  92 SW12      29.78S WCI  30
DUNKIRK        CLOUDY    38  35  89 SW10      29.83S WCI  31
JAMESTOWN      CLOUDY    34  33  96 W8        29.81F WCI  27
WELLSVILLE     CLOUDY    39  37  92 W14       29.74F WCI  31
ROCHESTER      CLOUDY    42  40  92 W20G25    29.73F
PENN YAN       CLOUDY    44  38  79 W13       29.71F
$$

             KEY
       WCI = WIND CHILL INDEX
       VSB = VISIBILITY
       HX  = HEAT INDEX
$$



USA.gov is the U.S. government's official web portal to all federal, state and local government web resources and services.